User: anonymous   Login
Location: Kitchener
(43.4500°N, 80.5000°W)
Time: 07:45:06
(UTC-04:00)
Language:

ATLAS 5 CENTAUR R/B - Orbit

View from above orbital plane
View from above orbital plane
View from above satellite
View from above satellite

Ground track
Ground track

The orbit data is extracted from the following two-line orbital elements,

1 31702U 07027B   17081.18209271 0.00000300  00000-0  10121-3 0    00
2 31702  63.3682 116.3668 0267315   3.1125 356.8875 14.18552077    02
Epoch (UTC): 22 March 2017 04:22:12
Eccentricity: 0.0267315
inclination: 63.3682°
perigee height: 637 km
apogee height: 1023 km
right ascension of ascending node: 116.3668°
argument of perigee: 3.1125°
revolutions per day: 14.18552077
mean anomaly at epoch: 356.8875°
orbit number at epoch: 0

The dashed part of the orbit path shows where the satellite is in the earth's shadow,  

DLR